TimeMST,TemperatureF,Dew PointF,Humidity,Sea Level PressureIn,VisibilityMPH,Wind Direction,Wind SpeedMPH,Gust SpeedMPH,PrecipitationIn,Events,Conditions,WindDirDegrees,DateUTC
12:53 AM,12.0,-0.9,56,30.14,10.0,SW,17.3,-,N/A,,Overcast,230,2013-01-15 07:53:00
1:53 AM,12.9,1.0,59,30.14,10.0,SW,17.3,-,N/A,,Overcast,220,2013-01-15 08:53:00
2:53 AM,14.0,1.9,59,30.14,10.0,SW,16.1,-,N/A,,Overcast,230,2013-01-15 09:53:00
3:53 AM,15.1,5.0,64,30.13,8.0,SW,15.0,-,0.00,Snow,Light Snow,230,2013-01-15 10:53:00
4:53 AM,16.0,8.1,71,30.11,8.0,WSW,16.1,-,0.00,Snow,Light Snow,240,2013-01-15 11:53:00
5:53 AM,18.0,10.0,71,30.12,10.0,WSW,17.3,-,0.00,,Overcast,250,2013-01-15 12:53:00
6:53 AM,19.0,12.0,74,30.12,10.0,West,13.8,-,0.01,,Overcast,260,2013-01-15 13:53:00
7:31 AM,21.2,15.8,80,29.94,10.0,West,17.3,-,N/A,,Overcast,270,2013-01-15 14:31:00
7:53 AM,21.9,17.1,82,30.12,10.0,West,16.1,-,N/A,,Overcast,270,2013-01-15 14:53:00
8:32 AM,23.0,17.6,80,29.95,10.0,West,16.1,-,N/A,,Overcast,270,2013-01-15 15:32:00
8:53 AM,23.0,19.0,85,30.12,10.0,West,16.1,-,N/A,,Overcast,270,2013-01-15 15:53:00
9:53 AM,25.0,19.9,81,30.12,9.0,West,17.3,-,0.00,Snow,Light Snow,260,2013-01-15 16:53:00
10:53 AM,26.1,21.0,81,30.13,9.0,West,16.1,-,0.00,,Overcast,270,2013-01-15 17:53:00
11:21 AM,26.6,21.2,80,29.96,2.0,West,17.3,-,0.00,Snow,Light Snow,270,2013-01-15 18:21:00
11:53 AM,27.0,21.9,81,30.11,3.0,West,11.5,-,0.01,Snow,Light Snow,270,2013-01-15 18:53:00
12:02 PM,26.6,23.0,86,29.95,2.0,West,13.8,-,N/A,Snow,Light Snow,270,2013-01-15 19:02:00
12:13 PM,26.6,23.0,86,29.95,4.0,West,13.8,-,0.01,Snow,Light Snow,260,2013-01-15 19:13:00
12:53 PM,28.0,24.1,85,30.09,4.0,West,12.7,-,0.01,Snow,Light Snow,270,2013-01-15 19:53:00
1:53 PM,30.0,25.0,82,30.07,10.0,West,15.0,-,0.00,,Overcast,270,2013-01-15 20:53:00
2:53 PM,30.9,26.1,82,30.09,8.0,WNW,15.0,-,0.00,Snow,Light Snow,290,2013-01-15 21:53:00
3:14 PM,30.2,26.6,86,29.97,2.0,West,15.0,-,0.00,Snow,Light Snow,280,2013-01-15 22:14:00
3:24 PM,30.2,26.6,86,29.97,8.0,West,16.1,-,0.00,Snow,Light Snow,280,2013-01-15 22:24:00
3:53 PM,30.0,27.0,88,30.11,10.0,West,13.8,-,0.00,,Overcast,280,2013-01-15 22:53:00
4:53 PM,30.0,27.0,88,30.12,3.0,WNW,13.8,-,0.00,Snow,Light Snow,290,2013-01-15 23:53:00
5:53 PM,30.0,27.0,88,30.12,10.0,West,12.7,-,0.00,,Overcast,270,2013-01-16 00:53:00
6:53 PM,32.0,27.0,82,30.12,10.0,West,15.0,-,N/A,,Overcast,260,2013-01-16 01:53:00
7:53 PM,30.9,26.1,82,30.11,10.0,West,15.0,-,N/A,,Overcast,270,2013-01-16 02:53:00
8:53 PM,30.0,24.1,79,30.10,10.0,West,15.0,-,N/A,,Mostly Cloudy,280,2013-01-16 03:53:00
9:53 PM,34.0,23.0,64,30.08,10.0,WNW,20.7,29.9,N/A,,Overcast,290,2013-01-16 04:53:00
10:53 PM,35.1,23.0,61,30.09,10.0,WNW,23.0,-,N/A,,Overcast,290,2013-01-16 05:53:00
11:53 PM,35.1,23.0,61,30.09,10.0,WNW,20.7,-,N/A,,Overcast,290,2013-01-16 06:53:00